DELTA 2 R/B(1)

Satellite information

Favourite Embed

Satellite Type and Status

ROCKET BODYIN ORBIT

Key statistics

Satellite DELTA 2 R/B(1) at a glance.

Uptime

10275

Days in orbit

Revolutions

≈ 13.3

Per day

Orbit

LEO

Low Earth Orbit

Inclination

26.3

Latest

Satellite identification and parameters

Extended collection of information and parameters for DELTA 2 R/B(1).

Object identification

Identified? True

Debris? False

Object name: DELTA 2 R/B(1)

International designator: 1997-025B

Object number (NORAD): 24809

Object ID (CCSDS): 24809

Country: UNITED STATES OF AMERICA (US)

Current information (Y/N): Y

RCS size: LARGE

Orbital parameters

Period: 108.197 minutes

Inclination: 26.2968 deg

SMA: 7521.463 km

Apoapsis: 1641.756 km

Periapsis: 644.9 km

RAAN: 243.8509 deg

Eccentricy: 0.0662674

Argument of periapsis: 299.4028 deg

Mean anomaly: 54.191 deg

Mean motion: 13.30911781 rev/day

Mean motion (dot): 0.00000326 rev/day2

B* drag term: 0.0001191 1/REarth

Two-line elements (TLE)

Creation date: July 6, 2025, 6:05 p.m.

Reference frame: TEME

Reference center: EARTH

Epoch: July 6, 2025, 1:50 p.m. UTC

TLE line 0: 0 DELTA 2 R/B(1)

TLE line 1: 1 24809U 97025B 25187.57660427 .00000326 00000-0 11910-3 0 9992

TLE line 2: 2 24809 26.2968 243.8509 0662674 299.4028 54.1910 13.30911781367925

Live tracking on map

Real-time ground track for satellite DELTA 2 R/B(1).

In-orbit conjunctions

A list of the most updated potential collisions computed for object DELTA 2 R/B(1).

Target Orbit TCA Probability of collision Miss distance Type
FENGYUN 1C DEB SSO 2025-01-23 10:48:42 0.0001332252 606.0 (m) DEBRIS

Associated space launch

In November 1995, Hughes was awarded the contract for Thor 2, a high-powered version of Hughes' spin-stabilized HS-376 model. Thor 2 was successfully launched in May 1997.

DELTA 2 R/B(1) was lifted into orbit during the mission ‘Delta II | Thor II’, on board a Delta II space rocket.

The launch took place on May 20, 1997, 10:39 p.m. from Space Launch Complex 17A.

For more information about the launch, click the button.

Launch to space Delta II | Thor II
Delta II | Thor II

Agency: N/A

Status: Launch Successful

Launch date: May 20, 1997, 10:39 p.m. UTC

Rocket: Delta II

Launch pad: Space Launch Complex 17A

Location: Cape Canaveral SFS, FL, USA

...

Latest news about this satellite

There are no fresh news available about this satellite. Check back as we update our databases every day.


Newsletter sign-up

Weekly statistics, charts and insights to help you stay on top of the space industry.